Erzurum Bolge, Turkey

5:25 PM +03 on February 22, 2017 (GMT +0300)
Erzurum

Weather History for LTCE - November, 2012

Change the Weather History Date:

Saturday, November 24, 2012

  Actual Average Record
Temperature  
Mean Temperature 32 °F -  
Max Temperature 43 °F 34 °F 54 °F (2013)
Min Temperature 21 °F 20 °F -25 °F (2001)
Degree Days  
Heating Degree Days 33    
Moisture  
Dew Point 28 °F    
Average Humidity 83    
Maximum Humidity 100    
Minimum Humidity 49    
Precipitation  
Precipitation 0.00 in 0.03 in - ()
Sea Level Pressure  
Sea Level Pressure 30.09 in    
Wind  
Wind Speed 5 mph ()    
Max Wind Speed 13 mph    
Max Gust Speed -    
Visibility 6.4 miles    
Events      
Averages and records for this station are not official NWS values.
T = Trace of Precipitation, MM = Missing Value Source: Averaged Metar Reports

Daily Weather History Graph

Daily Weather History Graph

Search for Another Location

Airport or City:

Trip Planner

Search our weather history database for the weather conditions in past years. The results will help you decide how hot, cold, wet, or windy it might be!

Date:

Astronomy

Nov. 24, 2012 Rise Set
Actual Time 6:10 AM EET 3:53 PM EET
Civil Twilight 5:41 AM EET 4:22 PM EET
Nautical Twilight 5:07 AM EET 4:56 PM EET
Astronomical Twilight 4:35 AM EET 5:28 PM EET
Moon 1:26 PM EET (11/24) 2:06 AM EET (11/24)
Length of Visible Light 10h 41m
Length of Day
9h 42m
Waxing Gibbous, 85% of the Moon is Illuminated
Nov 24
Waxing Gibbous
Nov 28
Full
Dec 6
Last Quarter
Dec 13
New
Dec 20
First Quarter

Hourly Weather History & Observations

Time (EET) Temp. Windchill Dew Point Humidity Pressure Visibility Wind Dir Wind Speed Gust Speed Precip Events Conditions
12:20 AM 33.8 °F 26.4 °F 30.2 °F 87% 30.12 in - ENE 9.2 mph - N/A   Clear
12:50 AM 33.8 °F 25.8 °F 30.2 °F 87% 30.12 in - East 10.4 mph - N/A   Clear
1:20 AM 30.2 °F 25.4 °F 28.4 °F 93% 30.12 in - East 4.6 mph - N/A   Clear
1:50 AM 32.0 °F 26.4 °F 28.4 °F 87% 30.12 in - ENE 5.8 mph - N/A   Clear
2:00 AM 31 °F - 28 °F 84%  in 12 mi ENE 5.8 mph - -  
2:20 AM 26.6 °F - 24.8 °F 93% 30.12 in - Variable 1.2 mph - N/A   Clear
2:50 AM 24.8 °F 20.5 °F 23.0 °F 93% 30.12 in - WNW 3.5 mph - N/A   Clear
3:20 AM 24.8 °F 20.5 °F 23.0 °F 93% 30.12 in - SW 3.5 mph - N/A   Clear
3:50 AM 24.8 °F - 23.0 °F 93% 30.12 in - Variable 2.3 mph - N/A   Clear
4:20 AM 24.8 °F - 24.8 °F 100% 30.12 in - Variable 2.3 mph - N/A   Clear
4:50 AM 24.8 °F 20.5 °F 23.0 °F 93% 30.12 in - WSW 3.5 mph - N/A   Clear
5:20 AM 24.8 °F 20.5 °F 24.8 °F 100% 30.12 in - WSW 3.5 mph - N/A   Clear
5:50 AM 23.0 °F - 21.2 °F 93% 30.12 in - Variable 2.3 mph - N/A   Clear
6:20 AM 23.0 °F 18.4 °F 23.0 °F 100% 30.12 in 4.3 mi SW 3.5 mph - N/A   Unknown
6:50 AM 23.0 °F - 21.2 °F 93% 30.12 in 4.3 mi Variable 2.3 mph - N/A   Unknown
7:20 AM 26.6 °F - 24.8 °F 93% 30.12 in 4.3 mi West 2.3 mph - N/A   Unknown
7:50 AM 28.4 °F - 26.6 °F 93% 30.12 in 4.3 mi WSW 2.3 mph - N/A   Unknown
8:00 AM 29 °F - 27 °F 91%  in 4 mi WSW 2.3 mph - -   Mist
8:20 AM 32.0 °F - 28.4 °F 87% 30.12 in - Calm Calm - N/A   Clear
8:50 AM 35.6 °F - 30.2 °F 81% 30.12 in - Variable 1.2 mph - N/A   Clear
9:20 AM 37.4 °F 33.8 °F 30.2 °F 75% 30.12 in 6.2 mi SSE 4.6 mph - N/A   Partly Cloudy
9:50 AM 39.2 °F 31.6 °F 30.2 °F 70% 30.12 in 6.2 mi East 12.7 mph - N/A   Scattered Clouds
10:20 AM 39.2 °F 32.0 °F 30.2 °F 70% 30.09 in 6.2 mi East 11.5 mph - N/A   Scattered Clouds
10:50 AM 41.0 °F 34.7 °F 30.2 °F 65% 30.09 in 6.2 mi East 10.4 mph - N/A   Scattered Clouds
11:20 AM 41.0 °F 34.7 °F 30.2 °F 65% 30.09 in 6.2 mi East 10.4 mph - N/A   Mostly Cloudy
11:50 AM 41.0 °F 34.7 °F 30.2 °F 65% 30.06 in 6.2 mi East 10.4 mph - N/A   Mostly Cloudy
12:20 PM 42.8 °F 37.5 °F 32.0 °F 66% 30.06 in 6.2 mi East 9.2 mph - N/A   Mostly Cloudy
12:50 PM 42.8 °F 38.0 °F 30.2 °F 61% 30.06 in 6.2 mi East 8.1 mph - N/A   Mostly Cloudy
1:20 PM 42.8 °F 38.0 °F 28.4 °F 57% 30.06 in 6.2 mi East 8.1 mph - N/A   Mostly Cloudy
1:50 PM 42.8 °F 37.5 °F 30.2 °F 61% 30.06 in 6.2 mi ENE 9.2 mph - N/A   Mostly Cloudy
2:00 PM 42 °F - 29 °F 49%  in 12 mi ENE 9.2 mph - -   Partly Cloudy
2:20 PM 41.0 °F 35.2 °F 30.2 °F 65% 30.06 in 6.2 mi East 9.2 mph - N/A   Mostly Cloudy
2:50 PM 41.0 °F 35.8 °F 30.2 °F 65% 30.06 in 6.2 mi East 8.1 mph - N/A   Mostly Cloudy
3:20 PM 39.2 °F 35.0 °F 30.2 °F 70% 30.06 in 6.2 mi East 5.8 mph - N/A   Mostly Cloudy
3:50 PM 37.4 °F 32.1 °F 30.2 °F 75% 30.06 in 6.2 mi East 6.9 mph - N/A   Mostly Cloudy
4:20 PM 37.4 °F 32.1 °F 30.2 °F 75% 30.06 in 6.2 mi East 6.9 mph - N/A   Mostly Cloudy
4:50 PM 35.6 °F 29.9 °F 30.2 °F 81% 30.06 in 6.2 mi East 6.9 mph - N/A   Mostly Cloudy
5:20 PM 35.6 °F 30.7 °F 30.2 °F 81% 30.06 in 6.2 mi East 5.8 mph - N/A   Mostly Cloudy
5:50 PM 32.0 °F 27.5 °F 28.4 °F 87% 30.06 in 6.2 mi ESE 4.6 mph - N/A   Mostly Cloudy
6:20 PM 33.8 °F - 28.4 °F 81% 30.06 in 6.2 mi Variable 2.3 mph - N/A   Mostly Cloudy
6:50 PM 33.8 °F - 30.2 °F 87% 30.06 in 6.2 mi East 2.3 mph - N/A   Mostly Cloudy
7:20 PM 32.0 °F 27.5 °F 28.4 °F 87% 30.09 in 6.2 mi NE 4.6 mph - N/A   Mostly Cloudy
7:50 PM 30.2 °F - 28.4 °F 93% 30.09 in 6.2 mi SSE 2.3 mph - N/A   Mostly Cloudy
8:00 PM 31 °F - 28 °F 82%  in 12 mi SSE 2.3 mph - -   Partly Cloudy
8:20 PM 32.0 °F - 30.2 °F 93% 30.09 in 6.2 mi Calm Calm - N/A   Mostly Cloudy
8:50 PM 30.2 °F - 28.4 °F 93% 30.09 in 6.2 mi Variable 1.2 mph - N/A   Mostly Cloudy
9:20 PM 30.2 °F - 28.4 °F 93% 30.09 in 6.2 mi West 2.3 mph - N/A   Mostly Cloudy
9:50 PM 28.4 °F - 28.4 °F 100% 30.09 in 6.2 mi Variable 2.3 mph - N/A   Mostly Cloudy
10:20 PM 28.4 °F - 28.4 °F 100% 30.09 in 6.2 mi Calm Calm - N/A   Mostly Cloudy
10:50 PM 28.4 °F - 28.4 °F 100% 30.09 in 6.2 mi Variable 1.2 mph - N/A   Mostly Cloudy
11:20 PM 28.4 °F 24.6 °F 26.6 °F 93% 30.06 in 6.2 mi NE 3.5 mph - N/A   Mostly Cloudy
11:50 PM 30.2 °F 24.3 °F 30.2 °F 100% 30.06 in 6.2 mi East 5.8 mph - N/A   Mostly Cloudy